Location: Kerberlivit
(48.2787°N, 4.5413°W)
Time: 03:43:22
(UTC+00:00)

Cosmos 2233 Rocket - Pass Details

Date: 18 February 2020
Orbit: 954 x 989 km, 82.9° (Epoch: 29 March)

Event Time Altitude Azimuth Distance (km) Brightness Sun altitude
Rises 06:38:59 0° 350° (N) 3,681 6.8 -7.7°
Reaches altitude 10° 06:41:30 10° 350° (N) 2,735 6.2 -7.2°
Maximum altitude 06:47:47 85° 263° (W) 992 4.1 -6.2°
Drops below altitude 10° 06:54:05 10° 176° (S) 2,737 6.6 -5.2°
Sets 06:56:35 0° 176° (S) 3,684 7.3 -4.8°
